Regional Weather Roundup
Issued by NWS New Orleans/Baton Rouge, LA

Home | Current Version | Previous Version | Text Only | Print | Product List | Glossary On
Versions: 1 2 3 4 5 6 7 8 9 10 11 12 13 14 15 16 17 18 19 20 21 22 23 24 25 26 27 28 29 30 31 32 33 34 35 36 37 38 39 40 41 42 43 44 45 46 47 48 49 50
869
ASUS44 KLIX 070411
RWRLIX
NEW ORLEANS REGIONAL WEATHER ROUNDUP
NATIONAL WEATHER SERVICE NEW ORLEANS LA
1000 PM CST SAT FEB 06 2016

NOTE: "FAIR" INDICATES FEW OR NO CLOUDS BELOW 12,000 FEET WITH NO
      SIGNIFICANT WEATHER AND/OR OBSTRUCTIONS TO VISIBILITY.
      SKY/WX - SKY CONDITION AND SIGNIFICANT WEATHER.
      TMP - AIR TEMPERATURE.     DP    - DEWPOINT TEMPERATURE.
      RH  - RELATIVE HUMIDITY.   PRES  - PRESSURE.
      HI  - HEAT INDEX.          WCI   - WIND CHILL INDEX.

*  THESE STATIONS ARE NOT NWS OR FAA STATIONS AND ARE NOT UNDER
   NWS QUALITY CONTROL.

LAZ038-040-048-061>063-065>067-069-070500-
SOUTHEAST LOUISIANA

CITY           SKY/WX    TMP DP  RH WIND       PRES   REMARKS
N.O. AUDUBON   NOT AVBL
N.O. INTL ARPT PTCLDY    45  29  53 W6        30.30S
N.O. LAKEFRONT CLEAR     51  38  60 NW9       30.30S
N.O. DOWNTOWN*   N/A     52  28  40 MISG      30.30S
RESERVE*         N/A     42  38  86 CALM      30.30F
SLIDELL        CLEAR     37  34  89 CALM      30.29S
BATON ROUGE    CLEAR     45  23  42 NW3       30.31S
BOOTHVILLE     PTCLDY    47  36  65 NW5       30.29R
BELLE CHASSE   PTCLDY    38  30  73 W3        30.30R
BOGALUSA*        N/A     36  31  81 CALM      30.31S
GALLIANO*      CLEAR     43  37  80 CALM      30.30S
NEW ROADS*       N/A     40  33  77 W3        30.33S
GONZALES*        N/A     40  35  81 CALM      30.30S
HAMMOND*       CLEAR     36  32  87 CALM      30.30S
HOUMA*         PTCLDY    39  36  86 CALM      30.30S
PORT FOURCHON* CLEAR     48  39  71 N6        30.30S

$$

MSZ070-080>082-070500-
SOUTHERN MISSISSIPPI

CITY           SKY/WX    TMP DP  RH WIND       PRES   REMARKS
MCCOMB         CLEAR     37  28  70 N5        30.31R WCI  33
GULFPORT       PTCLDY    42  34  73 CALM      30.28S
BILOXI         MOCLDY    47  36  66 VRB1      30.27F
PASCAGOULA     PTCLDY    37  35  92 CALM      30.28S

$$

COASTAL OBSERVATIONS
LAKE AND NEARSHORE STATIONS

STATION/POSITION TIME  TEMP    WIND        PRES    WAVE
                       AIR SEA DIR/SP/G            HT/PER
                 (UTC) (F)     (DEG/KT/KT) (MB)    (FT/S)
PASCAGOULA       0300   46     320/  6/  8 1024.6
WAVELAND YACHT   0300   48 54  290/  6/  8 1025.4
GRAND ISLE       0300   52 56  340/  7/  9 1025.5
NEW CANAL        0300   52 54  290/  1/  3 1025.0
SHELL BEACH      0300   52 55  320/  8/  9 1025.1

OFFSHORE STATIONS

STATION/POSITION TIME  TEMP    WIND        PRES    WAVE
                       AIR SEA DIR/SP/G            HT/PER
                 (UTC) (F)     (DEG/KT/KT) (MB)    (FT/S)

$$





USA.gov is the U.S. government's official web portal to all federal, state and local government web resources and services.